TimePST,TemperatureF,Dew PointF,Humidity,Sea Level PressureIn,VisibilityMPH,Wind Direction,Wind SpeedMPH,Gust SpeedMPH,PrecipitationIn,Events,Conditions,WindDirDegrees,DateUTC
12:56 AM,50.0,36.0,59,29.73,10.0,West,9.2,-,N/A,,Mostly Cloudy,270,2013-12-20 08:56:00
1:56 AM,50.0,37.0,61,29.73,10.0,WNW,5.8,-,N/A,,Overcast,290,2013-12-20 09:56:00
2:56 AM,52.0,36.0,54,29.73,10.0,West,8.1,-,N/A,,Overcast,280,2013-12-20 10:56:00
3:56 AM,52.0,36.0,54,29.74,-9999.0,West,6.9,-,N/A,,Unknown,260,2013-12-20 11:56:00
4:56 AM,50.0,36.0,59,29.74,10.0,West,8.1,-,N/A,,Overcast,270,2013-12-20 12:56:00
5:56 AM,48.9,36.0,61,29.76,10.0,WSW,5.8,-,N/A,,Partly Cloudy,250,2013-12-20 13:56:00
6:56 AM,46.0,34.0,63,29.79,10.0,West,8.1,-,N/A,,Partly Cloudy,270,2013-12-20 14:56:00
7:56 AM,53.1,37.0,55,29.81,10.0,West,11.5,-,N/A,,Partly Cloudy,280,2013-12-20 15:56:00
8:56 AM,61.0,34.0,36,29.82,10.0,NW,17.3,-,N/A,,Partly Cloudy,320,2013-12-20 16:56:00
9:56 AM,64.0,32.0,30,29.83,10.0,NW,18.4,-,N/A,,Partly Cloudy,310,2013-12-20 17:56:00
10:56 AM,66.0,32.0,28,29.83,10.0,NNW,21.9,-,N/A,,Partly Cloudy,330,2013-12-20 18:56:00
11:56 AM,68.0,32.0,26,29.81,10.0,NNW,16.1,-,N/A,,Partly Cloudy,340,2013-12-20 19:56:00
12:56 PM,69.1,30.0,23,29.79,10.0,NNW,16.1,-,N/A,,Partly Cloudy,330,2013-12-20 20:56:00
1:56 PM,70.0,30.0,23,29.79,10.0,NNW,15.0,-,N/A,,Partly Cloudy,330,2013-12-20 21:56:00
2:56 PM,69.1,28.9,22,29.80,10.0,NNW,17.3,-,N/A,,Partly Cloudy,340,2013-12-20 22:56:00
3:56 PM,66.9,32.0,27,29.81,10.0,NNW,10.4,-,N/A,,Partly Cloudy,330,2013-12-20 23:56:00
4:56 PM,61.0,30.0,31,29.82,10.0,SW,9.2,-,N/A,,Partly Cloudy,230,2013-12-21 00:56:00
5:56 PM,60.1,36.0,41,29.84,10.0,West,5.8,-,N/A,,Partly Cloudy,280,2013-12-21 01:56:00
6:56 PM,55.9,36.0,47,29.86,10.0,South,8.1,-,N/A,,Clear,190,2013-12-21 02:56:00
7:56 PM,54.0,37.0,53,29.87,10.0,WSW,10.4,-,N/A,,Clear,250,2013-12-21 03:56:00
8:56 PM,52.0,36.0,54,29.89,10.0,SSW,6.9,-,N/A,,Clear,210,2013-12-21 04:56:00
9:56 PM,52.0,37.9,59,29.90,10.0,SW,10.4,-,N/A,,Clear,230,2013-12-21 05:56:00
10:56 PM,51.1,39.0,63,29.92,10.0,SW,8.1,-,N/A,,Clear,230,2013-12-21 06:56:00
11:56 PM,50.0,37.9,63,29.91,10.0,WSW,9.2,-,N/A,,Clear,240,2013-12-21 07:56:00